Time,TemperatureF,DewpointF,PressureIn,WindDirection,WindDirectionDegrees,WindSpeedMPH,WindSpeedGustMPH,Humidity,HourlyPrecipIn,Conditions,Clouds,dailyrainin,SoftwareType,DateUTC
2013-09-02 00:14:00,74.0,71.0,29.84,South,189,0.0,1.0,91,0.00,,,0.00,,2013-09-02 04:14:00,
2013-09-02 00:54:00,74.0,71.0,29.84,SE,129,0.0,3.0,91,0.00,,,0.00,,2013-09-02 04:54:00,
2013-09-02 01:13:00,74.0,71.0,29.83,SSE,150,1.0,4.0,91,0.00,,,0.00,,2013-09-02 05:13:00,
2013-09-02 01:23:00,74.0,71.0,29.83,SE,137,1.0,4.0,91,0.00,,,0.00,,2013-09-02 05:23:00,
2013-09-02 01:34:00,74.0,71.0,29.83,SE,137,1.0,4.0,91,0.00,,,0.00,,2013-09-02 05:34:00,
2013-09-02 01:52:00,74.0,71.0,29.82,SSE,164,0.0,1.0,91,0.00,,,0.00,,2013-09-02 05:52:00,
2013-09-02 02:12:00,74.0,71.0,29.82,SSE,157,1.0,5.0,91,0.00,,,0.00,,2013-09-02 06:12:00,
2013-09-02 02:22:00,74.0,71.0,29.81,SSE,153,1.0,5.0,91,0.00,,,0.00,,2013-09-02 06:22:00,
2013-09-02 02:43:00,74.0,71.0,29.81,SE,144,0.0,6.0,91,0.00,,,0.00,,2013-09-02 06:43:00,
2013-09-02 02:52:00,74.0,71.0,29.81,SE,144,0.0,6.0,91,0.00,,,0.00,,2013-09-02 06:52:00,
2013-09-02 03:11:00,74.0,71.0,29.81,South,186,1.0,5.0,91,0.00,,,0.00,,2013-09-02 07:11:00,
2013-09-02 03:21:00,74.0,71.0,29.81,SE,139,0.0,2.0,90,0.00,,,0.00,,2013-09-02 07:21:00,
2013-09-02 03:42:00,74.0,71.0,29.81,SE,138,1.0,4.0,90,0.00,,,0.00,,2013-09-02 07:42:00,
2013-09-02 03:52:00,74.0,71.0,29.81,SE,138,1.0,4.0,90,0.00,,,0.00,,2013-09-02 07:52:00,
2013-09-02 04:11:00,74.0,71.0,29.80,SSE,161,0.0,1.0,90,0.00,,,0.00,,2013-09-02 08:11:00,
2013-09-02 04:22:00,73.0,70.0,29.80,SSE,154,0.0,2.0,90,0.00,,,0.00,,2013-09-02 08:22:00,
2013-09-02 04:40:00,73.0,70.0,29.80,ESE,118,0.0,1.0,91,0.00,,,0.00,,2013-09-02 08:40:00,
2013-09-02 04:52:00,73.0,70.0,29.80,ESE,111,0.0,2.0,91,0.00,,,0.00,,2013-09-02 08:52:00,
2013-09-02 05:12:00,73.0,70.0,29.80,ESE,118,0.0,1.0,91,0.00,,,0.00,,2013-09-02 09:12:00,
2013-09-02 05:22:00,73.0,70.0,29.80,ESE,118,0.0,1.0,91,0.00,,,0.00,,2013-09-02 09:22:00,
2013-09-02 05:34:00,73.0,70.0,29.80,ESE,118,0.0,1.0,91,0.00,,,0.00,,2013-09-02 09:34:00,
2013-09-02 05:54:00,73.0,70.0,29.80,SSE,147,0.0,3.0,91,0.00,,,0.00,,2013-09-02 09:54:00,
2013-09-02 06:13:00,73.0,70.0,29.80,ESE,117,0.0,2.0,91,0.00,,,0.00,,2013-09-02 10:13:00,
2013-09-02 06:23:00,73.0,70.0,29.80,SSE,148,1.0,4.0,91,0.00,,,0.00,,2013-09-02 10:23:00,
2013-09-02 06:42:00,73.0,70.0,29.80,SE,145,1.0,6.0,91,0.00,,,0.00,,2013-09-02 10:42:00,
2013-09-02 06:53:00,73.0,70.0,29.80,SE,145,1.0,6.0,91,0.00,,,0.00,,2013-09-02 10:53:00,
2013-09-02 07:11:00,73.0,70.0,29.80,South,184,1.0,3.0,91,0.00,,,0.00,,2013-09-02 11:11:00,
2013-09-02 07:22:00,73.0,70.0,29.80,SSW,209,0.0,3.0,91,0.00,,,0.00,,2013-09-02 11:22:00,
2013-09-02 07:33:00,73.0,70.0,29.80,SSW,209,0.0,3.0,91,0.00,,,0.00,,2013-09-02 11:33:00,
2013-09-02 07:42:00,73.0,70.0,29.80,SSW,209,0.0,3.0,91,0.00,,,0.00,,2013-09-02 11:42:00,
2013-09-02 07:52:00,72.0,69.0,29.80,WNW,290,1.0,6.0,91,0.00,,,0.00,,2013-09-02 11:52:00,
2013-09-02 08:12:00,72.0,69.0,29.81,West,280,0.0,1.0,91,0.01,,,0.01,,2013-09-02 12:12:00,
2013-09-02 08:21:00,72.0,69.0,29.81,West,280,0.0,1.0,91,0.01,,,0.01,,2013-09-02 12:21:00,
2013-09-02 08:43:00,71.0,68.0,29.80,West,280,0.0,1.0,91,0.02,,,0.02,,2013-09-02 12:43:00,
2013-09-02 08:52:00,72.0,69.0,29.80,West,280,0.0,1.0,91,0.02,,,0.02,,2013-09-02 12:52:00,
2013-09-02 09:11:00,72.0,70.0,29.80,North,0,0.0,0.0,92,0.01,,,0.02,,2013-09-02 13:11:00,
2013-09-02 09:22:00,72.0,70.0,29.80,North,0,0.0,0.0,92,0.01,,,0.02,,2013-09-02 13:22:00,
2013-09-02 09:42:00,75.0,73.0,29.79,West,279,0.0,1.0,92,0.00,,,0.02,,2013-09-02 13:42:00,
2013-09-02 09:52:00,75.0,72.0,29.80,WSW,239,0.0,2.0,91,0.00,,,0.02,,2013-09-02 13:52:00,
2013-09-02 10:11:00,76.0,73.0,29.80,SSW,198,0.0,2.0,90,0.00,,,0.02,,2013-09-02 14:11:00,
2013-09-02 10:22:00,76.0,73.0,29.80,SSW,198,0.0,2.0,90,0.00,,,0.02,,2013-09-02 14:22:00,
2013-09-02 10:32:00,76.0,73.0,29.80,SSW,198,0.0,2.0,90,0.00,,,0.02,,2013-09-02 14:32:00,
2013-09-02 10:43:00,76.0,73.0,29.80,SSW,198,0.0,2.0,90,0.00,,,0.02,,2013-09-02 14:43:00,
2013-09-02 10:52:00,76.0,72.0,29.80,SE,124,1.0,6.0,88,0.00,,,0.02,,2013-09-02 14:52:00,
2013-09-02 11:12:00,76.0,72.0,29.79,SE,130,0.0,2.0,88,0.00,,,0.02,,2013-09-02 15:12:00,
2013-09-02 11:23:00,76.0,72.0,29.79,SE,130,0.0,2.0,88,0.00,,,0.02,,2013-09-02 15:23:00,
2013-09-02 11:54:00,74.0,71.0,29.79,SSE,152,1.0,4.0,91,0.34,,,0.36,,2013-09-02 15:54:00,
2013-09-02 12:14:00,74.0,71.0,29.78,SSE,155,0.0,4.0,91,0.64,,,0.66,,2013-09-02 16:14:00,
2013-09-02 12:24:00,74.0,71.0,29.78,SSE,155,0.0,4.0,91,0.64,,,0.66,,2013-09-02 16:24:00,
2013-09-02 12:53:00,74.0,72.0,29.78,ESE,120,0.0,1.0,92,0.45,,,0.81,,2013-09-02 16:53:00,
2013-09-02 13:03:00,74.0,72.0,29.78,ESE,120,0.0,1.0,92,0.45,,,0.81,,2013-09-02 17:03:00,
2013-09-02 13:13:00,74.0,72.0,29.78,ESE,120,0.0,1.0,92,0.45,,,0.81,,2013-09-02 17:13:00,
2013-09-02 13:23:00,77.0,74.0,29.77,SSE,161,1.0,6.0,90,0.07,,,0.82,,2013-09-02 17:23:00,
2013-09-02 13:45:00,77.0,74.0,29.76,SE,133,0.0,2.0,91,0.03,,,0.82,,2013-09-02 17:45:00,
2013-09-02 13:52:00,76.0,73.0,29.76,SSE,165,1.0,3.0,91,0.01,,,0.82,,2013-09-02 17:52:00,
2013-09-02 14:13:00,77.0,74.0,29.75,SSE,167,0.0,4.0,91,0.00,,,0.82,,2013-09-02 18:13:00,
2013-09-02 14:22:00,77.0,74.0,29.75,SSE,167,0.0,4.0,91,0.00,,,0.82,,2013-09-02 18:22:00,
2013-09-02 14:52:00,78.0,75.0,29.74,SSE,165,0.0,3.0,90,0.00,,,0.82,,2013-09-02 18:52:00,
2013-09-02 15:12:00,78.0,74.0,29.74,SSE,168,1.0,5.0,87,0.00,,,0.82,,2013-09-02 19:12:00,
2013-09-02 15:22:00,79.0,76.0,29.74,SSE,151,0.0,1.0,90,0.00,,,0.82,,2013-09-02 19:22:00,
2013-09-02 15:52:00,80.0,76.0,29.72,SSE,150,0.0,4.0,88,0.00,,,0.82,,2013-09-02 19:52:00,
2013-09-02 16:12:00,80.0,75.0,29.73,South,188,0.0,3.0,85,0.00,,,0.82,,2013-09-02 20:12:00,
2013-09-02 16:22:00,79.0,74.0,29.72,SSE,151,0.0,1.0,86,0.00,,,0.82,,2013-09-02 20:22:00,
2013-09-02 16:33:00,79.0,74.0,29.72,SSE,151,0.0,1.0,86,0.00,,,0.82,,2013-09-02 20:33:00,
2013-09-02 16:52:00,78.0,74.0,29.72,SW,216,0.0,4.0,87,0.01,,,0.83,,2013-09-02 20:52:00,
2013-09-02 17:12:00,76.0,73.0,29.71,West,262,0.0,1.0,90,0.06,,,0.88,,2013-09-02 21:12:00,
2013-09-02 17:23:00,76.0,73.0,29.71,West,262,0.0,1.0,91,0.06,,,0.88,,2013-09-02 21:23:00,
2013-09-02 17:44:00,76.0,73.0,29.71,North,0,0.0,0.0,91,0.06,,,0.88,,2013-09-02 21:44:00,
2013-09-02 17:54:00,76.0,73.0,29.71,North,0,0.0,0.0,91,0.06,,,0.88,,2013-09-02 21:54:00,
2013-09-02 18:13:00,76.0,73.0,29.70,West,262,0.0,1.0,91,0.02,,,0.88,,2013-09-02 22:13:00,
2013-09-02 18:24:00,77.0,74.0,29.70,SW,215,0.0,1.0,92,0.00,,,0.88,,2013-09-02 22:24:00,
2013-09-02 18:33:00,77.0,74.0,29.70,SW,215,0.0,1.0,92,0.00,,,0.88,,2013-09-02 22:33:00,
2013-09-02 18:54:00,77.0,74.0,29.69,North,0,0.0,0.0,91,0.00,,,0.88,,2013-09-02 22:54:00,
2013-09-02 19:12:00,76.0,73.0,29.69,North,0,0.0,0.0,91,0.00,,,0.88,,2013-09-02 23:12:00,
2013-09-02 19:22:00,76.0,73.0,29.69,North,0,0.0,0.0,91,0.00,,,0.88,,2013-09-02 23:22:00,
2013-09-02 19:52:00,75.0,72.0,29.70,North,0,0.0,0.0,91,0.00,,,0.88,,2013-09-02 23:52:00,
2013-09-02 20:12:00,75.0,72.0,29.70,North,0,0.0,0.0,91,0.00,,,0.88,,2013-09-03 00:12:00,
2013-09-02 20:22:00,75.0,72.0,29.70,North,0,0.0,0.0,91,0.00,,,0.88,,2013-09-03 00:22:00,
2013-09-02 20:42:00,74.0,71.0,29.70,North,0,0.0,0.0,91,0.00,,,0.88,,2013-09-03 00:42:00,
2013-09-02 20:52:00,74.0,71.0,29.70,North,0,0.0,0.0,91,0.00,,,0.88,,2013-09-03 00:52:00,
2013-09-02 21:11:00,73.0,70.0,29.71,North,0,0.0,0.0,91,0.00,,,0.88,,2013-09-03 01:11:00,
2013-09-02 21:22:00,73.0,70.0,29.71,North,0,0.0,0.0,91,0.00,,,0.88,,2013-09-03 01:22:00,
2013-09-02 21:42:00,73.0,71.0,29.70,North,0,0.0,0.0,92,0.00,,,0.88,,2013-09-03 01:42:00,
2013-09-02 21:52:00,73.0,71.0,29.70,North,0,0.0,0.0,92,0.00,,,0.88,,2013-09-03 01:52:00,
2013-09-02 22:12:00,72.0,70.0,29.71,North,0,0.0,0.0,92,0.00,,,0.88,,2013-09-03 02:12:00,
2013-09-02 22:21:00,72.0,70.0,29.71,North,0,0.0,0.0,92,0.00,,,0.88,,2013-09-03 02:21:00,
2013-09-02 22:42:00,72.0,70.0,29.72,North,0,0.0,0.0,92,0.00,,,0.88,,2013-09-03 02:42:00,
2013-09-02 22:52:00,73.0,71.0,29.71,North,0,0.0,0.0,92,0.00,,,0.88,,2013-09-03 02:52:00,
2013-09-02 23:02:00,73.0,71.0,29.71,North,0,0.0,0.0,92,0.00,,,0.88,,2013-09-03 03:02:00,
2013-09-02 23:11:00,73.0,71.0,29.71,North,0,0.0,0.0,92,0.00,,,0.88,,2013-09-03 03:11:00,
2013-09-02 23:23:00,73.0,71.0,29.71,North,0,0.0,0.0,92,0.00,,,0.88,,2013-09-03 03:23:00,
2013-09-02 23:45:00,72.0,70.0,29.72,North,0,0.0,0.0,92,0.00,,,0.88,,2013-09-03 03:45:00,
2013-09-02 23:55:00,72.0,70.0,29.72,North,0,0.0,0.0,92,0.00,,,0.88,,2013-09-03 03:55:00,